Somerville, NJ

5:09 AM EDT on May 28, 2017 (GMT -0400)
Somerset

Weather History for KSMQ - August, 2013

Change the Weather History Date:

Sunday, August 18, 2013

  Actual Average Record
Temperature  
Mean Temperature 68 °F -  
Max Temperature 77 °F 82 °F 96 °F (2002)
Min Temperature 61 °F 59 °F 43 °F (1954)
Cooling Degree Days 3    
Growing Degree Days 18 (Base 50)    
Moisture  
Dew Point 62 °F    
Average Humidity 84    
Maximum Humidity 100    
Minimum Humidity 56    
Precipitation  
Precipitation 0.00 in - - ()
Sea Level Pressure  
Sea Level Pressure 30.18 in    
Wind  
Wind Speed 1 mph (NNW)    
Max Wind Speed 7 mph    
Max Gust Speed -    
Visibility 7 miles    
Events Fog , Rain    
Averages and records for this station are not official NWS values.
T = Trace of Precipitation, MM = Missing Value Source: NWS Daily Summary

Daily Weather History Graph

Daily Weather History Graph

Search for Another Location

Airport or City:

Trip Planner

Search our weather history database for the weather conditions in past years. The results will help you decide how hot, cold, wet, or windy it might be!

Date:

Astronomy

Aug. 18, 2013 Rise Set
Actual Time 6:12 AM EDT 7:51 PM EDT
Civil Twilight 5:43 AM EDT 8:20 PM EDT
Nautical Twilight 5:08 AM EDT 8:55 PM EDT
Astronomical Twilight 4:30 AM EDT 9:33 PM EDT
Moon 5:56 PM EDT (8/18) 3:18 AM EDT (8/18)
Length of Visible Light 14h 37m
Length of Day
13h 39m
Waxing Gibbous, 92% of the Moon is Illuminated
Aug 18
Waxing Gibbous
Aug 20
Full
Aug 28
Last Quarter
Sep 5
New
Sep 12
First Quarter

Hourly Weather History & Observations

Time (EDT) Temp. Dew Point Humidity Pressure Visibility Wind Dir Wind Speed Gust Speed Precip Events Conditions
12:53 AM 62.1 °F 60.1 °F 93% 30.25 in 9.0 mi Calm Calm - N/A   Clear
1:53 AM 62.1 °F 60.1 °F 93% 30.24 in 8.0 mi Calm Calm - N/A   Clear
2:53 AM 61.0 °F 59.0 °F 93% 30.23 in 9.0 mi NW 3.5 mph - N/A   Clear
3:53 AM 61.0 °F 59.0 °F 93% 30.23 in 10.0 mi Calm Calm - N/A   Clear
4:53 AM 61.0 °F 59.0 °F 93% 30.22 in 9.0 mi Calm Calm - N/A   Clear
5:53 AM 61.0 °F 59.0 °F 93% 30.23 in 8.0 mi Calm Calm - N/A   Clear
6:53 AM 61.0 °F 60.1 °F 97% 30.24 in 6.0 mi Calm Calm - N/A   Clear
7:53 AM 64.0 °F 61.0 °F 90% 30.25 in 10.0 mi Calm Calm - N/A   Clear
8:53 AM 66.9 °F 62.1 °F 84% 30.24 in 10.0 mi Calm Calm - N/A   Clear
9:53 AM 70.0 °F 61.0 °F 73% 30.25 in 10.0 mi Calm Calm - N/A   Clear
10:53 AM 73.0 °F 61.0 °F 66% 30.24 in 10.0 mi Calm Calm - N/A   Clear
11:53 AM 75.0 °F 60.1 °F 60% 30.23 in 10.0 mi Variable 3.5 mph - 0.00 in Rain Light Rain
12:53 PM 75.9 °F 59.0 °F 56% 30.22 in 10.0 mi Calm Calm - 0.00 in   Mostly Cloudy
1:53 PM 75.9 °F 59.0 °F 56% 30.20 in 10.0 mi North 4.6 mph - N/A   Mostly Cloudy
2:53 PM 75.9 °F 60.1 °F 58% 30.17 in 10.0 mi North 5.8 mph - 0.00 in   Clear
3:53 PM 75.9 °F 61.0 °F 60% 30.14 in 10.0 mi North 6.9 mph - N/A   Partly Cloudy
4:53 PM 73.9 °F 61.0 °F 64% 30.14 in 10.0 mi North 3.5 mph - 0.00 in Rain Light Rain
5:53 PM 73.9 °F 62.1 °F 66% 30.14 in 10.0 mi NNW 3.5 mph - 0.00 in Rain Light Rain
6:53 PM 72.0 °F 64.9 °F 78% 30.13 in 10.0 mi Calm Calm - 0.00 in   Scattered Clouds
7:53 PM 69.1 °F 66.0 °F 90% 30.14 in 10.0 mi Calm Calm - N/A   Clear
8:53 PM 66.9 °F 64.9 °F 93% 30.14 in 10.0 mi Calm Calm - N/A   Clear
9:53 PM 64.9 °F 64.0 °F 97% 30.14 in 5.0 mi Calm Calm - N/A   Clear
10:53 PM 64.0 °F 63.0 °F 96% 30.14 in 1.0 mi Calm Calm - N/A   Mist
10:56 PM 64.4 °F 62.6 °F 94% 30.14 in 0.8 mi Calm Calm - N/A   Clear
11:07 PM 64.4 °F 62.6 °F 94% 30.14 in 2.5 mi Calm Calm - N/A   Clear
11:15 PM 64.4 °F 62.6 °F 94% 30.14 in 1.0 mi Calm Calm - N/A   Mist
11:20 PM 62.6 °F 62.6 °F 100% 30.14 in 0.2 mi Calm Calm - N/A Fog Fog
11:32 PM 64.4 °F 62.6 °F 94% 30.14 in 1.0 mi Calm Calm - N/A   Mist
11:35 PM 62.6 °F 62.6 °F 100% 30.13 in 2.5 mi Calm Calm - N/A   Scattered Clouds
11:44 PM 62.6 °F 62.6 °F 100% 30.13 in 0.8 mi Calm Calm - N/A   Mist
11:53 PM 63.0 °F 62.1 °F 97% 30.14 in 0.2 mi Calm Calm - N/A Fog Fog